Beaumont, TX

4:12 PM CDT on August 19, 2017 (GMT -0500)
Southeast Texas Regional

Weather History for KBPT - January, 2014

Change the Weather History Date:

Tuesday, January 28, 2014

  Actual Average Record
Temperature  
Mean Temperature 37 °F 53 °F  
Max Temperature 46 °F 63 °F 81 °F (1909)
Min Temperature 28 °F 44 °F 24 °F (1906)
Degree Days  
Heating Degree Days 28 12  
Month to date heating degree days 441 358  
Since 1 July heating degree days 1096 908  
Cooling Degree Days 0 0  
Month to date cooling degree days 0 0  
Year to date cooling degree days 0 0  
Moisture  
Dew Point 21 °F    
Average Humidity 55    
Maximum Humidity 78    
Minimum Humidity 31    
Precipitation  
Precipitation 0.03 in 0.16 in 2.09 in (1905)
Month to date precipitation 1.15 4.79  
Year to date precipitation 1.15 4.79  
Snow  
Snow 0.00 in 0.00 in 0.30 in (2014)
Month to date snowfall T 0.0  
Since 1 July snowfall T T  
Snow Depth 0.00 in    
Sea Level Pressure  
Sea Level Pressure 30.31 in    
Wind  
Wind Speed 13 mph (NNE)    
Max Wind Speed 25 mph    
Max Gust Speed 32 mph    
Visibility 9 miles    
Events Rain    
T = Trace of Precipitation, MM = Missing Value Source: NWS Daily Summary

Daily Weather History Graph

Daily Weather History Graph

Search for Another Location

Airport or City:

Trip Planner

Search our weather history database for the weather conditions in past years. The results will help you decide how hot, cold, wet, or windy it might be!

Date:

Astronomy

Jan. 28, 2014 Rise Set
Actual Time 7:08 AM CST 5:50 PM CST
Civil Twilight 6:43 AM CST 6:15 PM CST
Nautical Twilight 6:14 AM CST 6:44 PM CST
Astronomical Twilight 5:46 AM CST 7:12 PM CST
Moon 4:47 AM CST (1/28) 3:43 PM CST (1/28)
Length of Visible Light 11h 32m
Length of Day
10h 41m
Waning Crescent, 7% of the Moon is Illuminated
Jan 28
Waning Crescent
Jan 30
New
Feb 6
First Quarter
Feb 14
Full
Feb 22
Last Quarter

Hourly Weather History & Observations

Time (CST) Temp. Windchill Dew Point Humidity Pressure Visibility Wind Dir Wind Speed Gust Speed Precip Events Conditions
12:53 AM 44.1 °F 37.1 °F 16.0 °F 32% 30.14 in 10.0 mi NNE 15.0 mph 25.3 mph N/A   Overcast
1:53 AM 41.0 °F 32.2 °F 16.0 °F 36% 30.16 in 10.0 mi North 18.4 mph - N/A   Overcast
2:53 AM 39.0 °F 29.6 °F 12.9 °F 34% 30.16 in 10.0 mi NNE 18.4 mph 25.3 mph N/A   Overcast
3:53 AM 37.0 °F 28.5 °F 12.9 °F 37% 30.16 in 10.0 mi NNE 13.8 mph - 0.00 in   Mostly Cloudy
4:53 AM 36.0 °F 26.3 °F 12.9 °F 39% 30.18 in 10.0 mi North 16.1 mph 25.3 mph N/A   Scattered Clouds
5:53 AM 34.0 °F 24.2 °F 14.0 °F 44% 30.22 in 10.0 mi North 15.0 mph - N/A   Overcast
6:53 AM 30.0 °F 18.3 °F 23.0 °F 75% 30.27 in 10.0 mi North 17.3 mph 27.6 mph 0.00 in   Overcast
7:53 AM 30.0 °F 18.3 °F 25.0 °F 82% 30.30 in 10.0 mi NNE 17.3 mph 23.0 mph 0.00 in   Overcast
8:53 AM 30.0 °F 17.9 °F 25.0 °F 82% 30.31 in 7.0 mi NNE 18.4 mph 25.3 mph 0.01 in   Overcast
9:53 AM 30.0 °F 19.1 °F 25.0 °F 82% 30.33 in 10.0 mi North 15.0 mph - 0.00 in   Overcast
10:53 AM 30.0 °F 18.3 °F 25.0 °F 82% 30.33 in 10.0 mi North 17.3 mph - 0.00 in   Overcast
11:53 AM 30.0 °F 17.9 °F 25.0 °F 82% 30.33 in 10.0 mi North 18.4 mph 26.5 mph 0.00 in   Overcast
12:36 PM 28.4 °F 15.8 °F 24.8 °F 86% 30.32 in 2.0 mi North 18.4 mph - 0.01 in   Overcast
12:50 PM 28.4 °F 16.2 °F 23.0 °F 80% 30.31 in 7.0 mi North 17.3 mph 27.6 mph 0.01 in   Overcast
12:53 PM 28.0 °F 16.5 °F 23.0 °F 81% 30.32 in 7.0 mi North 15.0 mph 27.6 mph 0.01 in   Overcast
1:09 PM 28.4 °F 14.4 °F 21.2 °F 74% 30.30 in 10.0 mi NNE 23.0 mph 32.2 mph 0.00 in   Overcast
1:53 PM 28.0 °F 15.3 °F 21.9 °F 78% 30.30 in 8.0 mi North 18.4 mph 25.3 mph 0.00 in   Overcast
2:53 PM 28.9 °F 17.3 °F 21.9 °F 75% 30.31 in 10.0 mi North 16.1 mph - 0.01 in   Overcast
3:53 PM 30.0 °F 19.5 °F 21.9 °F 72% 30.32 in 10.0 mi North 13.8 mph - 0.00 in Rain Light Freezing Rain
4:53 PM 30.0 °F 21.7 °F 23.0 °F 75% 30.35 in 10.0 mi North 9.2 mph - 0.00 in   Light Freezing Drizzle
5:53 PM 30.9 °F 25.2 °F 23.0 °F 72% 30.34 in 10.0 mi North 5.8 mph - 0.00 in   Light Freezing Drizzle
6:53 PM 30.9 °F 24.3 °F 21.9 °F 69% 30.37 in 10.0 mi NNE 6.9 mph - 0.00 in   Light Freezing Drizzle
7:38 PM 30.2 °F 26.7 °F 21.2 °F 69% 30.39 in 10.0 mi North 3.5 mph - 0.00 in   Partly Cloudy
7:53 PM 32.0 °F 25.6 °F 23.0 °F 69% 30.38 in 10.0 mi NNE 6.9 mph - 0.00 in   Scattered Clouds
8:53 PM 32.0 °F 28.7 °F 23.0 °F 69% 30.41 in 10.0 mi NNE 3.5 mph - N/A   Partly Cloudy
9:53 PM 32.0 °F 26.4 °F 23.0 °F 69% 30.41 in 10.0 mi NNE 5.8 mph - N/A   Clear
10:53 PM 32.0 °F 24.8 °F 21.9 °F 66% 30.43 in 10.0 mi NNE 8.1 mph - N/A   Clear
11:53 PM 32.0 °F 22.5 °F 19.9 °F 61% 30.41 in 10.0 mi NNE 12.7 mph - N/A   Mostly Cloudy